Regional Weather Roundup
Issued by NWS

Home | Current Version | Previous Version | Graphics & Text | Print | Product List | Glossary On
Versions: 1 2 3 4 5 6 7 8 9 10 11 12 13 14 15 16 17 18 19 20 21 22 23 24 25 26 27 28 29 30 31 32 33 34 35 36 37 38 39 40 41 42 43 44 45 46 47 48 49 50
000
ASUS44 KMEG 231010
RWRTN
TENNESSEE HOURLY STATE WEATHER ROUNDUP
NATIONAL WEATHER SERVICE MEMPHIS TN
500 AM CDT SAT SEP 23 2017

TNZ002-004-019-021-049-052-054-088>092-231100-
WEST TENNESSEE

CITY           SKY/WX    TMP DP  RH WIND       PRES   REMARKS
MEMPHIS INTL   CLEAR     75  69  81 CALM      29.98R
NWS MEMPHIS      N/A     69 N/A N/A MISG        N/A
JACKSON        CLEAR     65  65 100 CALM      30.01R FOG
DYERSBURG      FOG       70  68  93 NE3       30.01R VSB 1/2
SOMERVILLE     CLEAR     68  66  94 CALM      29.98R
COVINGTON      PTCLDY    66  66 100 CALM      29.99S
BOLIVAR        FOG       66  64  94 CALM      29.99R VSB 1/4
PARIS          CLEAR     68  66  94 CALM      30.00S
HUNTINGDON     PTCLDY    68  68 100 CALM      30.00R FOG
LEXINGTON      CLEAR     66  66 100 CALM      30.00R FOG
SELMER         CLEAR     68  66  94 CALM      30.00R
SAVANNAH       PTCLDY    64  64 100 CALM      29.99R
$$

TNZ008-025-027-028-033-062-065-066-231100-
NORTH MIDDLE TENNESSEE

CITY           SKY/WX    TMP DP  RH WIND       PRES   REMARKS
NASHVILLE      CLEAR     69  67  93 CALM      30.03R
PORTLAND       CLEAR     68  66  94 CALM      30.03R
CLARKSVILLE    CLEAR     66  64  93 CALM      30.02S FOG
SMYRNA           N/A    N/A N/A N/A MISG        N/A  FOG
COOKEVILLE     FOG       61  61 100 CALM      30.05R VSB 1/4
GALLATIN       CLEAR     66  64  94 CALM      30.05R
CROSSVILLE     PTCLDY    63  62  97 CALM      30.10R FOG
$$

TNZ061-075-076-078-094-096-097-231100-
SOUTH MIDDLE TENNESSEE

CITY           SKY/WX    TMP DP  RH WIND       PRES   REMARKS
FAYETTEVILLE   CLEAR     70  66  88 E6        30.03R
TULLAHOMA      CLEAR     64  61  88 CALM      30.06R
WINCHESTER     CLEAR     63  63 100 CALM      30.04S
MCMINNVILLE      N/A     64  64 100 CALM      30.05S
COLUMBIA       CLEAR     66 N/A N/A CALM      30.00S HAZE
SHELBYVILLE    CLEAR     66  66 100 CALM      30.03R
$$

TNZ017-018-042-046-047-231100-
NORTHEAST TENNESSEE

CITY           SKY/WX    TMP DP  RH WIND       PRES   REMARKS
TRI CITIES     MOCLDY    61  61 100 CALM      30.09S
ELIZABETHTON   MOCLDY    64  63  94 NE3       30.09F
$$

TNZ012-013-036-069-073-074-231100-
CENTRAL EAST TENNESSEE

CITY           SKY/WX    TMP DP  RH WIND       PRES   REMARKS
KNOXVILLE      MOCLDY    67  64  90 CALM      30.05R
OAK RIDGE      CLOUDY    68  65  90 CALM      30.07R
DOWNTOWN KNOXV CLEAR     66  66 100 CALM      30.05R FOG
GATLINBURG     CLEAR     63  61  94 CALM      30.06R
MORRISTOWN     CLEAR     68  63  83 CALM      30.06S
JACKSBORO      FOG       63  63 100 CALM      30.11R VSB 0
$$

TNZ083-085-099-231100-
SOUTHEAST TENNESSEE

CITY           SKY/WX    TMP DP  RH WIND       PRES   REMARKS
CHATTANOOGA    CLEAR     68  65  90 CALM      30.05R
DAYTON         MOSUNNY   64  64 100 CALM      30.04R FOG
$$

SKY/WX REPORTED AS FAIR MEANS FEW OR NO CLOUDS BELOW
12 THOUSAND FEET.




USA.gov is the U.S. government's official web portal to all federal, state and local government web resources and services.